Weather History for KMLS - November, 2010

Change the Weather History Date:

Sunday, November 7, 2010

  Actual Average Record
Temperature  
Mean Temperature 55 °F 37 °F  
Max Temperature 73 °F 48 °F 75 °F (1999)
Min Temperature 37 °F 25 °F 0 °F (2000)
Degree Days  
Heating Degree Days 10 28  
Month to date heating degree days 102 187  
Since 1 July heating degree days 750 998  
Cooling Degree Days 0 0  
Month to date cooling degree days 0 0  
Year to date cooling degree days 609 730  
Growing Degree Days 4 (Base 50)    
Moisture  
Dew Point 34 °F    
Average Humidity 52    
Maximum Humidity 76    
Minimum Humidity 27    
Precipitation  
Precipitation 0.00 in 0.01 in 0.18 in (1980)
Month to date precipitation 0.00 0.11  
Year to date precipitation 17.28 11.87  
Sea Level Pressure  
Sea Level Pressure 29.76 in    
Wind  
Wind Speed 5 mph (South)    
Max Wind Speed 9 mph    
Max Gust Speed 10 mph    
Visibility 10 miles    
Events      
T = Trace of Precipitation, MM = Missing Value Source: NWS Daily Summary

Daily Weather History Graph

Daily Weather History Graph

Search for Another Location

Airport or City:

Trip Planner

Search our weather history database for the weather conditions in past years. The results will help you decide how hot, cold, wet, or windy it might be!

Date:

Astronomy

Nov. 07, 2010 Rise Set
Actual Time 6:53 AM MST 4:40 PM MST
Civil Twilight 6:21 AM MST 5:12 PM MST
Nautical Twilight 5:45 AM MST 5:48 PM MST
Astronomical Twilight 5:10 AM MST 6:23 PM MST
Moon 8:52 AM MST (11/7) 5:31 PM MST (11/7)
Length of Visible Light 10h 50m
Length of Day
9h 46m
Waxing Crescent, 3% of the Moon is Illuminated
Nov 7
Waxing Crescent
Nov 13
First Quarter
Nov 21
Full
Nov 28
Last Quarter
Dec 5
New

Hourly Weather History & Observations

Time (MST) Temp. Windchill Dew Point Humidity Pressure Visibility Wind Dir Wind Speed Gust Speed Precip Events Conditions
12:53 AM 48.9 °F - 33.1 °F 54% 29.80 in 10.0 mi Calm Calm - N/A   Clear
1:53 AM 43.0 °F 39.5 °F 32.0 °F 65% 29.80 in 10.0 mi West 5.8 mph - N/A   Clear
1:53 AM 43.0 °F 38.8 °F 33.1 °F 68% 29.80 in 10.0 mi SSW 6.9 mph - N/A   Clear
2:53 AM 43.0 °F 38.2 °F 33.1 °F 68% 29.81 in 10.0 mi WSW 8.1 mph - N/A   Clear
3:53 AM 39.9 °F 35.8 °F 32.0 °F 73% 29.83 in 10.0 mi WSW 5.8 mph - N/A   Clear
4:53 AM 42.1 °F - 32.0 °F 67% 29.84 in 10.0 mi Calm Calm - N/A   Clear
5:53 AM 39.9 °F 33.9 °F 32.0 °F 73% 29.85 in 10.0 mi SW 9.2 mph - N/A   Clear
6:53 AM 37.4 °F 32.8 °F 30.2 °F 75% 29.84 in 10.0 mi NW 5.8 mph - N/A   Clear
8:53 AM 48.9 °F - 34.0 °F 56% 29.85 in 10.0 mi Calm Calm - N/A   Unknown
9:53 AM 52.0 °F - 33.1 °F 49% 29.84 in 10.0 mi SSE 8.1 mph - N/A   Clear
10:53 AM 59.0 °F - 34.0 °F 39% 29.82 in 10.0 mi South 5.8 mph - N/A   Clear
11:53 AM 64.9 °F - 36.0 °F 34% 29.77 in 10.0 mi SSE 5.8 mph - N/A   Clear
12:53 PM 70.0 °F - 36.0 °F 29% 29.73 in 10.0 mi Variable 4.6 mph - N/A   Clear
1:53 PM 72.0 °F - 35.1 °F 26% 29.71 in 10.0 mi South 4.6 mph - N/A   Clear
2:53 PM 72.0 °F - 35.1 °F 26% 29.70 in 10.0 mi SE 3.5 mph - N/A   Unknown
3:53 PM 69.1 °F - 36.0 °F 30% 29.70 in 10.0 mi SE 5.8 mph - N/A   Clear
4:53 PM 66.9 °F - 35.1 °F 31% 29.70 in 10.0 mi East 4.6 mph - N/A   Clear
5:53 PM 54.0 °F - 35.1 °F 49% 29.71 in 10.0 mi NNE 6.9 mph - N/A   Clear
6:53 PM 52.0 °F - 35.1 °F 53% 29.71 in 10.0 mi Calm Calm - N/A   Clear
7:53 PM 51.1 °F - 35.1 °F 54% 29.71 in 10.0 mi Calm Calm - N/A   Clear
8:53 PM 53.1 °F - 35.1 °F 50% 29.69 in 10.0 mi ESE 3.5 mph - N/A   Clear
9:53 PM 48.0 °F - 35.1 °F 61% 29.68 in 10.0 mi SSE 5.8 mph - N/A   Clear
10:53 PM 48.0 °F - 34.0 °F 58% 29.66 in 10.0 mi SSE 6.9 mph - N/A   Clear